sat.trackr.live / text

‹ back to catalog

STARLINK-33964

NORAD 64118 · 2025-110Y

PAYLOAD ACTIVE UNKNOWN

§ Identity

Operator
Country
US
Launch date
2025-05-23
Launch site
AFWTR
Launch vehicle
Mass (kg)
RCS (m²)

Purposes: comms

External: N2YO · Heavens-Above · Gunter

§ Orbital elements

Epoch: 2026-05-25T02:29:35.802240Z

Period
94.01 min
Inclination
53.1590°
Eccentricity
0.0001008
Mean motion
15.31730499 rev/d
Perigee alt
470.0 km
Apogee alt
471.3 km
Semi-major
6,848.8 km
B*
1.5553e-3
RAAN
31.6965°
Arg perigee
86.8590°
Mean anomaly
273.2526°
Rev number
5,758

§ Raw data

STARLINK-339641 64118U 25110Y   26145.10388660  .00048256  00000+0  15553-2 0  99942 64118  53.1590  31.6965 0001008  86.8590 273.2526 15.31730499 57584

JSON: /api/v1/satellites/64118 · /tle

For live sub-satellite position, see the globe view (requires WebGL).

§ Visibility from observer

Set your observer location to see the next 7 days of passes ≥ 10°. The values pass through the URL so the page stays shareable.

No JS? Fill the form by hand. The geolocation button needs JavaScript.